Tracking 29892 objects as of 21-Nov-2024
HD Live streaming from Space Station
objects crossing your sky now

BRITE-PL

Track BRITE-PL now!
10-day predictions
BRITE-PL is classified as:


NORAD ID: 39431
Int'l Code: 2013-066R
Perigee: 595.1 km
Apogee: 871.7 km
Inclination: 97.7 °
Period: 99.3 minutes
Semi major axis: 7104 km
RCS: Unknown
Launch date: November 21, 2013
Source: POLAND (POL)
Launch site: Orenburg, Russia (OREN)

Uplink (MHz):
Downlink (MHz): 437.365/2234.400
Beacon (MHz): 145.890
Mode: 32Kbps-256Kbps
Call sign:
Status: Inactive

Your satellite tracking list
YAOGAN-43 02F
Track 1 satellite(s)




NASA's NSSDC Master Catalog

Two Line Element Set (TLE):
1 39431U 13066R   24325.89884215  .00000990  00000-0  21136-3 0  9991
2 39431  97.7256 111.0743 0194673 354.7313   5.1831 14.49806011581018
Source of the keplerian elements: AFSPC